Wind_Speed
44 44 43 43 44 44 44 43 43 44 44 42 40 40 38 37 36 36 35 35 34 33 33 33 32 33 33 33 33 33 33 33 33 32 33 32 32 32 31 31 32 33 34
37 37 37 38 38 39 39 40 40 41 40 40 40 39 37 36 36 35 34 34 33 32 32 32 32 33 33 34 34 35 35 35 35 35 35 35 34 33 32 30 29 29 31
32 32 32 31 31 33 35 36 36 36 35 34 36 37 37 36 35 34 33 32 32 31 31 31 32 33 33 34 35 36 36 36 36 36 36 37 36 35 33 31 30 29 28
26 25 26 27 27 27 29 30 30 30 30 30 32 32 33 33 32 31 31 30 30 30 30 31 32 33 34 34 35 36 37 37 38 38 38 38 37 36 35 33 32 30 29
22 22 21 22 24 23 23 22 23 25 26 27 28 27 27 27 27 27 27 27 28 28 29 30 31 32 33 34 35 36 36 37 37 37 38 38 38 37 36 35 34 33 31
20 20 19 19 19 19 19 18 17 19 21 22 23 23 22 22 23 23 23 24 25 27 27 28 29 30 31 32 33 34 35 36 37 37 38 38 38 38 38 37 36 35 34
20 18 17 16 16 15 14 14 14 14 15 15 16 17 18 19 19 20 21 22 23 24 25 26 26 27 28 29 31 32 33 34 34 36 37 38 38 38 38 37 37 37 36
18 17 15 15 14 13 13 12 13 13 14 14 14 15 16 16 17 18 19 19 20 20 21 21 22 23 25 27 28 29 31 32 33 34 35 36 36 37 37 37 37 37 36
16 14 14 13 12 12 12 12 12 12 13 13 13 13 14 14 15 16 16 16 17 18 18 19 21 23 25 26 27 28 29 30 31 33 34 34 35 35 35 35 36 36 36
14 13 12 12 11 11 12 12 12 12 11 11 11 12 12 13 13 13 14 14 15 15 17 18 20 21 23 24 26 28 29 30 31 31 32 32 33 33 33 33 33 34 34
12 11 11 10 11 11 11 11 11 11 11 11 12 12 12 12 12 12 13 13 13 14 16 17 19 21 22 24 26 27 28 29 29 30 30 30 30 30 30 30 30 31 31
11 10 10 10 9 9 10 10 11 11 11 11 11 11 11 12 12 12 12 12 12 14 15 17 18 20 22 24 25 26 26 27 27 27 28 28 28 28 28 28 27 28 29
11 10 10 9 9 9 8 9 9 10 10 11 10 10 11 11 12 12 11 11 12 14 15 16 18 20 22 23 24 25 25 25 26 26 26 26 25 26 26 26 26 27 28
12 11 11 10 10 9 9 9 9 10 10 11 11 12 12 12 12 12 12 12 13 14 15 16 18 20 22 23 24 24 25 25 25 25 25 25 24 24 24 24 25 25 26
14 13 12 11 11 11 11 11 11 11 12 12 12 13 13 13 13 12 13 13 13 14 15 17 18 20 22 23 24 24 24 24 25 25 25 24 24 23 23 23 23 24 25
17 16 15 14 13 13 13 13 13 13 13 13 13 13 13 13 14 14 14 14 14 14 15 17 19 20 22 24 25 25 25 25 26 25 25 24 24 23 22 22 22 23 24
21 19 18 17 17 16 15 15 15 14 14 14 14 15 15 15 15 15 15 15 15 15 16 17 19 20 22 24 25 26 26 26 27 26 26 25 24 24 23 23 22 22 23
24 23 22 21 20 19 18 18 17 17 17 17 17 17 17 17 17 16 16 16 16 16 16 18 19 21 22 24 25 26 27 27 27 27 27 26 25 24 24 23 23 23 23
26 25 25 24 23 22 21 21 21 20 20 20 19 19 19 18 18 18 18 17 17 17 17 18 19 21 23 24 25 26 27 28 28 28 28 27 26 25 24 24 23 23 23
27 26 26 26 25 25 25 24 24 23 23 23 22 22 21 20 20 20 19 19 19 18 18 19 20 21 22 24 25 26 28 28 29 29 29 27 26 26 25 24 24 24 23
26 26 26 26 26 26 27 27 26 26 25 25 24 24 23 23 22 22 22 21 21 20 20 20 20 21 22 23 25 26 28 29 30 30 30 29 28 27 26 25 25 24 24
25 25 25 26 26 26 26 27 27 27 27 27 26 25 25 24 24 24 23 23 22 22 21 21 21 22 22 23 25 27 28 30 31 31 31 30 29 28 27 26 25 24 24
24 23 23 24 24 24 24 25 26 27 28 28 28 27 26 26 25 25 25 24 24 23 22 22 22 22 22 23 25 27 29 31 32 33 33 32 31 30 29 27 26 25 24
24 23 23 24 24 23 23 23 23 25 26 27 28 27 27 26 26 25 25 25 24 23 23 22 22 22 22 23 25 27 29 31 33 34 34 34 33 32 30 28 27 25 24
26 24 23 23 22 22 22 22 22 23 24 25 26 27 27 27 26 26 25 25 25 24 23 22 22 22 22 23 26 28 31 32 34 35 35 35 34 33 31 29 27 26 24
28 26 25 24 23 22 21 21 21 22 22 23 24 25 25 25 25 25 25 24 24 24 22 22 21 21 22 23 26 29 31 33 35 36 37 37 35 33 32 30 28 26 25
Wind_Direction
284 278 274 271 267 265 262 261 261 259 259 256 255 256 256 257 258 261 264 268 270 271 273 274 274 276 277 278 279 280 280 280 280 281 282 283 284 285 284 282 279 277 271
288 281 273 269 266 262 258 257 258 256 254 254 254 253 253 257 260 262 264 267 269 270 272 273 274 275 276 277 278 279 280 280 280 279 280 280 281 282 282 284 283 281 275
296 286 276 268 263 260 257 256 257 253 251 252 251 251 252 255 259 261 263 265 268 270 272 273 275 276 277 277 278 279 279 279 279 278 278 278 279 280 280 281 281 281 279
300 293 280 271 266 263 260 258 252 248 246 249 249 250 252 254 256 259 262 266 269 271 272 274 276 278 278 279 279 279 280 279 279 278 277 277 277 277 278 278 278 279 276
300 296 290 275 272 270 263 258 253 250 250 250 248 249 250 252 255 260 264 267 269 272 274 277 278 279 280 281 281 281 280 280 280 279 278 277 276 275 275 275 275 275 274
302 295 291 284 280 274 267 263 259 253 249 249 248 248 250 254 258 261 266 268 271 274 277 279 280 282 283 283 283 283 282 282 281 280 279 278 276 275 274 273 272 272 271
308 302 292 284 278 274 272 270 267 265 260 258 255 252 255 257 260 264 267 270 273 276 278 281 283 284 285 286 286 286 286 285 284 283 281 280 278 276 274 273 271 269 268
307 304 297 289 284 280 274 272 273 270 266 265 261 259 261 262 262 264 267 269 273 277 281 284 287 288 290 290 291 290 290 289 287 286 284 282 279 277 274 272 270 267 264
303 299 291 286 281 273 271 272 268 265 261 261 259 259 260 260 261 263 267 271 275 278 282 285 289 292 293 295 295 295 295 293 292 290 287 284 281 278 275 273 269 266 264
298 294 288 280 275 270 268 268 266 264 261 257 254 255 256 257 259 263 267 271 275 279 284 289 294 296 298 301 302 302 301 300 297 294 292 288 284 280 276 273 270 267 263
294 289 285 279 273 267 264 263 261 258 253 252 253 250 249 251 256 261 264 269 275 282 288 294 298 301 305 308 309 309 307 305 302 300 297 293 289 284 279 274 270 267 263
286 285 280 275 272 266 262 257 252 249 248 246 244 244 246 249 254 258 264 272 278 286 293 298 304 308 313 315 314 313 313 311 308 305 302 297 292 288 283 278 274 269 263
278 276 274 269 265 262 256 250 246 242 242 243 242 243 247 252 256 261 266 273 283 291 298 304 310 316 320 321 320 319 317 315 312 310 307 303 298 291 285 281 278 272 266
268 267 266 263 260 255 251 247 243 240 239 242 244 247 251 256 259 262 269 278 287 295 302 309 315 321 325 326 326 324 322 319 316 314 312 308 303 298 291 285 281 276 271
260 260 259 257 254 252 250 248 245 243 243 245 248 251 254 257 259 265 272 280 288 296 305 312 318 324 327 329 328 327 325 323 320 316 314 313 309 304 298 291 286 280 274
254 253 254 254 252 251 250 249 248 247 246 248 250 253 255 257 261 266 272 279 287 296 305 312 319 324 327 329 329 328 326 325 324 321 317 314 312 308 302 297 291 284 277
251 251 251 252 252 251 250 249 248 248 248 250 252 254 256 259 263 267 273 278 285 294 302 311 317 321 325 327 328 328 327 326 325 324 321 316 313 310 306 301 295 289 282
250 250 251 251 251 251 251 250 249 249 250 252 254 256 258 260 264 268 272 277 284 290 299 308 314 319 322 325 327 327 327 326 325 324 322 319 315 312 308 305 300 294 286
250 250 251 251 251 251 252 251 251 251 252 254 255 257 259 261 263 267 271 275 281 288 296 304 311 316 320 323 325 327 327 327 327 326 324 321 318 314 311 307 303 298 291
249 250 250 251 253 253 253 253 253 253 254 256 257 258 259 262 264 266 270 274 279 285 292 299 307 313 318 322 324 326 327 329 329 327 326 323 320 317 313 310 306 301 296
248 248 249 251 253 254 255 255 254 255 256 257 258 259 260 262 264 267 270 273 278 283 289 296 302 309 315 320 323 324 326 328 330 329 328 325 322 319 316 312 308 304 298
248 248 249 250 252 255 256 257 257 257 257 258 259 259 260 262 264 267 270 273 277 282 287 293 298 304 311 317 321 324 327 329 330 330 329 327 324 321 318 314 311 306 301
246 247 248 249 251 253 256 259 259 259 259 260 260 260 260 262 264 266 269 272 276 280 285 290 295 300 306 312 319 324 327 329 330 330 329 327 325 322 319 316 312 308 304
244 246 248 249 250 251 254 258 260 260 261 261 261 262 261 261 263 266 269 272 275 278 283 287 292 297 304 311 317 322 325 327 328 328 328 326 324 322 319 316 313 310 305
241 244 247 248 249 250 252 256 260 261 262 263 263 263 263 263 264 265 268 272 275 278 283 286 290 294 300 307 314 319 323 326 326 326 326 324 322 321 318 316 313 311 307
238 241 244 245 247 250 253 256 259 261 263 263 264 264 263 263 264 266 270 273 276 278 282 285 288 292 298 305 312 318 322 324 325 325 324 323 321 319 317 315 313 311 308
Height
5756 5753 5751 5750 5749 5750 5751 5752 5753 5754 5756 5758 5761 5763 5765 5766 5768 5770 5772 5773 5774 5774 5775 5774 5774 5774 5772 5772 5771 5769 5768 5767 5766 5765 5763 5761 5759 5757 5754 5752 5750 5749 5748
5742 5739 5737 5737 5736 5737 5738 5739 5741 5743 5745 5747 5750 5752 5755 5757 5759 5761 5763 5764 5765 5766 5766 5766 5765 5765 5764 5763 5762 5761 5760 5759 5757 5756 5754 5753 5751 5749 5747 5745 5743 5741 5739
5733 5729 5727 5726 5725 5726 5727 5729 5731 5733 5735 5737 5740 5743 5745 5748 5751 5753 5754 5755 5756 5757 5757 5757 5757 5756 5755 5754 5753 5752 5751 5750 5748 5747 5745 5744 5742 5741 5739 5738 5736 5734 5732
5725 5722 5721 5719 5718 5718 5719 5720 5722 5724 5727 5729 5731 5734 5737 5739 5742 5744 5746 5747 5748 5749 5749 5748 5748 5747 5746 5745 5744 5743 5742 5740 5739 5737 5736 5734 5733 5732 5731 5730 5728 5727 5725
5720 5718 5715 5714 5713 5713 5714 5714 5716 5718 5719 5722 5724 5726 5729 5732 5734 5736 5738 5739 5740 5740 5740 5740 5739 5738 5737 5736 5735 5734 5732 5731 5729 5727 5726 5724 5723 5723 5722 5721 5720 5719 5718
5717 5714 5712 5710 5709 5709 5709 5709 5710 5712 5713 5715 5718 5720 5723 5725 5727 5729 5730 5731 5732 5732 5732 5732 5731 5730 5729 5727 5726 5724 5722 5721 5719 5717 5715 5714 5713 5712 5712 5711 5711 5710 5710
5712 5710 5708 5706 5705 5705 5705 5706 5707 5707 5709 5710 5712 5714 5717 5719 5720 5722 5724 5724 5725 5725 5725 5724 5723 5722 5721 5720 5717 5715 5713 5711 5709 5707 5705 5703 5702 5701 5701 5700 5700 5700 5700
5709 5706 5704 5703 5702 5702 5702 5702 5703 5704 5705 5706 5708 5710 5711 5713 5715 5716 5717 5718 5718 5718 5718 5717 5716 5715 5713 5712 5710 5707 5705 5702 5699 5696 5694 5692 5690 5689 5689 5689 5688 5689 5689
5705 5703 5701 5700 5699 5699 5699 5699 5700 5701 5701 5703 5704 5705 5706 5708 5709 5711 5712 5712 5712 5713 5712 5711 5710 5709 5707 5705 5702 5699 5696 5692 5689 5687 5684 5682 5680 5678 5678 5677 5677 5678 5679
5702 5700 5698 5697 5696 5696 5696 5696 5696 5697 5698 5699 5700 5701 5702 5704 5705 5706 5707 5707 5708 5708 5707 5706 5704 5702 5700 5697 5694 5691 5687 5684 5680 5677 5674 5672 5670 5668 5667 5667 5666 5667 5667
5698 5696 5695 5694 5693 5693 5693 5693 5693 5694 5695 5695 5696 5697 5699 5700 5701 5702 5703 5703 5703 5702 5702 5700 5698 5696 5694 5690 5687 5683 5679 5675 5671 5668 5665 5662 5660 5658 5657 5656 5656 5656 5657
5694 5693 5692 5691 5690 5690 5690 5690 5690 5691 5691 5692 5693 5694 5695 5696 5697 5698 5699 5699 5698 5698 5697 5695 5693 5690 5687 5683 5680 5676 5672 5668 5664 5660 5656 5653 5650 5648 5647 5647 5647 5647 5647
5690 5689 5688 5688 5687 5687 5687 5687 5687 5688 5689 5689 5690 5691 5692 5693 5693 5694 5694 5694 5694 5693 5692 5690 5687 5685 5681 5677 5673 5669 5665 5661 5657 5653 5650 5646 5643 5640 5639 5638 5637 5637 5638
5686 5685 5685 5685 5684 5684 5684 5684 5685 5685 5686 5687 5687 5688 5688 5689 5690 5690 5690 5689 5689 5688 5687 5684 5682 5679 5675 5671 5667 5663 5659 5655 5651 5647 5643 5640 5636 5633 5631 5630 5629 5628 5628
5681 5681 5681 5681 5681 5681 5681 5681 5682 5682 5683 5683 5684 5684 5685 5685 5686 5686 5685 5685 5684 5683 5681 5679 5677 5673 5670 5666 5662 5658 5654 5650 5645 5641 5637 5633 5630 5627 5624 5622 5621 5620 5620
5676 5676 5676 5676 5676 5677 5677 5677 5678 5678 5679 5679 5680 5680 5681 5681 5681 5681 5681 5680 5679 5678 5676 5674 5671 5668 5665 5661 5657 5653 5648 5644 5640 5636 5631 5628 5624 5621 5618 5616 5614 5612 5612
5669 5670 5670 5671 5671 5672 5672 5673 5673 5674 5674 5674 5675 5675 5676 5676 5676 5676 5676 5675 5674 5673 5671 5669 5666 5663 5660 5656 5652 5647 5643 5639 5635 5630 5626 5622 5618 5615 5612 5609 5607 5605 5604
5661 5662 5663 5664 5665 5666 5667 5667 5668 5668 5669 5669 5670 5670 5671 5671 5671 5671 5670 5670 5669 5667 5666 5664 5661 5658 5655 5651 5647 5643 5638 5634 5629 5625 5621 5616 5613 5609 5606 5603 5600 5598 5596
5652 5654 5656 5657 5658 5659 5660 5661 5662 5662 5663 5663 5664 5664 5664 5664 5665 5664 5664 5664 5663 5662 5660 5658 5656 5653 5650 5646 5642 5638 5633 5629 5624 5620 5615 5611 5607 5603 5599 5596 5593 5591 5589
5643 5645 5647 5649 5650 5652 5653 5654 5655 5655 5656 5657 5657 5658 5658 5658 5658 5658 5658 5657 5657 5656 5654 5652 5650 5648 5644 5641 5637 5633 5628 5624 5619 5614 5610 5605 5601 5597 5593 5590 5587 5584 5582
5634 5636 5638 5640 5642 5643 5645 5646 5647 5648 5649 5649 5650 5651 5651 5651 5651 5651 5651 5651 5650 5649 5648 5646 5644 5642 5639 5635 5632 5627 5623 5618 5614 5609 5604 5599 5595 5591 5587 5583 5580 5577 5574
5625 5627 5629 5631 5633 5635 5636 5638 5639 5640 5641 5642 5642 5643 5644 5644 5644 5644 5644 5644 5643 5643 5641 5640 5638 5636 5633 5630 5626 5622 5617 5613 5608 5603 5598 5593 5589 5584 5580 5577 5573 5570 5567
5616 5619 5621 5623 5625 5627 5628 5629 5631 5632 5633 5634 5634 5635 5636 5636 5637 5637 5637 5637 5636 5636 5635 5633 5631 5629 5627 5624 5620 5616 5612 5607 5602 5597 5592 5587 5582 5578 5574 5570 5566 5563 5560
5608 5610 5613 5615 5617 5619 5620 5621 5623 5624 5624 5625 5626 5627 5628 5628 5629 5629 5629 5629 5629 5628 5627 5626 5625 5623 5620 5617 5614 5610 5606 5601 5596 5591 5586 5581 5576 5571 5567 5563 5559 5556 5553
5600 5602 5605 5607 5609 5611 5613 5614 5615 5616 5617 5617 5618 5619 5620 5620 5621 5621 5621 5621 5621 5621 5620 5619 5617 5616 5614 5611 5608 5604 5600 5595 5590 5584 5579 5574 5569 5565 5560 5556 5552 5549 5545
5591 5594 5597 5599 5602 5604 5605 5607 5608 5608 5609 5610 5610 5611 5612 5613 5613 5614 5614 5614 5613 5613 5612 5611 5610 5608 5606 5604 5601 5597 5593 5589 5584 5578 5572 5567 5562 5557 5553 5549 5545 5541 5538